Dryden Regional Airport
CYHD : now visible

Airfield :











YOU CAN JOIN US ON...

 
LOGIN :

Register | Disclaimer

   EN    FR    IT 

 









Legend :    VFR   Marginal VFR   IFR   Intensive IFR   Very Intensive IFR
Visi :
Ceiling :
>= 8 km
>= 3000ft
5 to 8 km
1000 to 3000 ft
1500m to 5 km
500 to 1000 ft
800 to 1500m
200 to 500 ft
< 800m
< 200 ft
Symbols :   Thunderstorms  Fog  Heavy snow  Heavy precipitations  Wind > 20 kt






- Airport Elevation : 1354 ft
- IATA code : YHD


CYHD - Dryden Regional

CURRENT METAR :
  • 210400Z AUTO 25002KT 9SM OVC055 M04/M13 A3009 RMK SLP218

EXPIRED METARs :
  • 210300Z AUTO VRB02KT 9SM OVC055 M03/M14 A3010 RMK SLP220
  • 210200Z AUTO 01004KT 310V050 9SM OVC055 M03/M14 A3010 RMK SLP220

TAF TAF CYHD
Valid from the 21 at 02:00 until the 21 at 14:00 UTC


210138Z 2102/2114 01007KT P6SM BKN060
FM210800 VRB03KT P6SM FEW050
FM211300 26010KT P6SM SCT050 RMK FCST BASED ON AUTO OBS. NXT FCST BY 210800Z
CZWG FIR / North America



MET'MAP, your aeronautical weather chart ! - Copyright ORBIFLY December 2007 - Disclaimer

ORBIFLY MET'MAP TEAM :

Programming & Development : Alexandra Zaïnal
Concept & original design : Baudouin d'Aumeries
Assistance for programming : Marc-Olivier Méhu
Technical & hardware support : Manuel Goepfert

Contact : metmap@orbifly.com




SOURCES & CREDITS :

   NOAA       Earth
Advisory